N7DTY Weather Reports


time (UTC)temp
F
wind
direction
speed
knots
gust
knots
rain 1hr
in
rain 24hr
in
rain mn
in
humidity
%
barometer
mb
20260508051523 54 178 0.0 3.5 0.00 0.00 0.00 80 1016.2
20260508050022 55 130 1.7 7.0 0.00 0.00 0.00 80 1016.3
20260508044526 55 204 1.7 4.3 0.00 0.00 0.00 79 1016.5
20260508043022 55 211 1.7 6.1 0.00 0.00 0.00 78 1016.6
20260508041519 55 166 2.6 4.3 0.00 0.00 0.00 77 1016.6
20260508040019 55 184 0.9 4.3 0.00 0.00 0.00 78 1016.7
20260508034518 55 144 0.0 4.3 0.00 0.00 0.00 78 1016.6
20260508033018 56 184 0.9 4.3 0.00 0.00 0.00 77 1016.5
20260508031516 57 170 0.9 4.3 0.00 0.00 0.00 76 1016.5
20260508030015 57 170 0.0 3.5 0.00 0.00 0.00 77 1016.7
20260508024530 57 195 0.9 3.5 0.00 0.00 0.00 76 1016.7
20260508023022 58 163 0.9 4.3 0.00 0.00 0.00 77 1016.6
20260508021513 58 171 0.9 3.5 0.00 0.00 0.00 76 1016.8
20260508020011 58 193 0.9 4.3 0.00 0.00 0.00 76 1016.7
20260508014510 59 193 1.7 6.1 0.00 0.00 0.00 76 1016.9
20260508013008 59 142 1.7 4.3 0.00 0.00 0.00 74 1017.1
20260508011506 59 144 2.6 7.8 0.00 0.00 0.00 75 1017.2
20260508010005 59 351 1.7 4.3 0.00 0.00 0.00 74 1017.3
20260508004504 60 144 1.7 7.8 0.00 0.00 0.00 74 1017.5
20260508003005 59 181 1.7 5.2 0.00 0.00 0.00 77 1017.5
20260508001503 59 159 0.9 5.2 0.00 0.00 0.00 76 1017.4
20260508000002 60 162 1.7 5.2 0.00 0.00 0.00 73 1017.4
20260507234502 60 202 2.6 6.1 0.00 0.00 0.00 73 1017.5
20260507233100 60 205 2.6 6.1 0.00 0.00 0.00 72 1017.5
20260507231601 61 191 1.7 6.1 0.00 0.00 0.00 72 1017.6
20260507230104 60 184 1.7 6.1 0.00 0.00 0.00 73 1017.7
20260507224600 60 207 3.5 7.8 0.00 0.00 0.00 73 1017.9
20260507223056 60 203 3.5 7.0 0.00 0.00 0.00 73 1017.9
20260507221554 60 156 1.7 7.0 0.00 0.00 0.00 74 1018.1
20260507220152 61 175 2.6 7.0 0.00 0.00 0.00 72 1018.3
20260507214602 61 178 2.6 7.8 0.00 0.00 0.00 72 1018.6
20260507213046 62 183 2.6 7.0 0.00 0.00 0.00 72 1018.8
20260507211549 61 171 2.6 7.0 0.00 0.00 0.00 73 1018.9
20260507210045 61 209 1.7 4.3 0.00 0.00 0.00 74 1019.1
20260507204543 60 185 1.7 5.2 0.00 0.00 0.00 76 1019.3
20260507203056 59 151 3.5 7.0 0.00 0.00 0.00 75 1019.6
20260507201551 59 144 2.6 7.8 0.00 0.00 0.00 77 1019.8
20260507200053 59 159 2.6 7.8 0.00 0.00 0.00 76 1019.8
20260507194539 60 155 0.9 6.1 0.00 0.00 0.00 78 1019.8
20260507193044 60 198 1.7 6.1 0.00 0.00 0.00 76 1019.9
20260507191534 59 185 1.7 4.3 0.00 0.00 0.00 76 1020.0
20260507190032 57 193 0.9 4.3 0.00 0.00 0.00 79 1020.1
20260507184530 57 184 0.9 4.3 0.00 0.00 0.00 77 1020.3
20260507183030 56 171 1.7 4.3 0.00 0.00 0.00 78 1020.3
20260507181532 56 175 1.7 6.1 0.00 0.00 0.00 78 1020.4
20260507180036 55 169 1.7 5.2 0.00 0.00 0.00 77 1020.4
20260507174528 56 153 0.9 4.3 0.00 0.00 0.00 78 1020.5
20260507173032 56 153 0.9 4.3 0.00 0.00 0.00 75 1020.4
20260507171528 57 170 1.7 3.5 0.00 0.00 0.00 73 1020.4
20260507170028 57 194 0.0 3.5 0.00 0.00 0.00 75 1020.4
20260507164526 57 163 0.0 3.5 0.00 0.00 0.00 75 1020.3
20260507163022 56 186 0.9 4.3 0.00 0.00 0.00 77 1020.4
20260507161521 55 199 0.9 2.6 0.00 0.00 0.00 76 1020.4
20260507160020 56 196 0.9 4.3 0.00 0.00 0.00 75 1020.4
20260507154515 55 182 0.9 7.0 0.00 0.00 0.00 78 1020.6
20260507153012 54 165 1.7 5.2 0.00 0.00 0.00 78 1020.7
20260507151511 53 209 0.0 1.7 0.00 0.00 0.00 80 1020.6
20260507150019 53 171 0.9 5.2 0.00 0.00 0.00 83 1020.6
20260507144513 53 166 0.9 4.3 0.00 0.00 0.00 84 1020.7
20260507143001 53 150 1.7 4.3 0.00 0.00 0.00 84 1020.5
20260507141604 53 179 0.0 2.6 0.00 0.00 0.00 84 1020.5
20260507140101 53 161 0.0 2.6 0.00 0.00 0.00 84 1020.5
20260507134604 52 181 0.0 1.7 0.00 0.00 0.00 83 1020.5
20260507133123 52 181 0.0 1.7 0.00 0.00 0.00 83 1020.4
20260507131555 52 181 0.0 1.7 0.00 0.00 0.00 82 1020.3
20260507130105 52 181 0.0 0.0 0.00 0.00 0.00 81 1020.3
20260507124550 52 181 0.0 2.6 0.00 0.00 0.00 81 1020.3
20260507123053 52 178 0.0 0.9 0.00 0.00 0.00 81 1020.3
20260507121604 52 178 0.0 3.5 0.00 0.00 0.00 79 1020.5
20260507120057 52 173 0.9 4.3 0.00 0.00 0.00 80 1020.5
20260507114632 53 150 0.9 3.5 0.00 0.00 0.00 80 1020.6
20260507113047 52 182 0.9 4.3 0.00 0.00 0.00 80 1020.6
20260507111548 52 154 1.7 4.3 0.00 0.00 0.00 81 1020.7
20260507110045 53 153 0.9 6.1 0.00 0.00 0.00 80 1020.6
20260507104544 53 192 1.7 7.8 0.00 0.00 0.00 80 1020.5
20260507103044 53 165 0.9 7.0 0.00 0.00 0.00 80 1020.5
20260507101546 53 169 0.9 3.5 0.00 0.00 0.00 80 1020.6
20260507100042 53 135 0.9 4.3 0.00 0.00 0.00 80 1020.5
20260507094540 53 155 2.6 7.0 0.00 0.00 0.00 80 1020.5
20260507093041 53 219 0.9 7.8 0.00 0.00 0.00 80 1020.6
20260507091544 53 157 1.7 7.8 0.00 0.00 0.00 81 1020.5
20260507090038 53 202 3.5 7.8 0.00 0.00 0.00 80 1020.6
20260507084536 53 160 2.6 6.1 0.00 0.00 0.00 80 1020.6
20260507083034 53 183 0.9 7.0 0.00 0.00 0.00 81 1020.6
20260507081531 53 152 1.7 7.0 0.00 0.00 0.00 81 1020.6
20260507080030 53 169 2.6 8.7 0.00 0.00 0.00 80 1020.5
20260507074528 53 186 3.5 10.4 0.00 0.00 0.00 80 1020.4
20260507073027 54 202 1.7 8.7 0.00 0.00 0.00 80 1020.3
20260507071524 54 188 2.6 9.6 0.00 0.00 0.00 79 1020.3
20260507070028 54 175 3.5 11.3 0.00 0.00 0.00 79 1020.1
20260507064524 54 146 1.7 12.2 0.00 0.00 0.00 81 1020.0
20260507063020 54 144 2.6 7.8 0.00 0.00 0.00 81 1019.9
20260507061521 54 130 3.5 9.6 0.00 0.00 0.00 81 1019.9
20260507060019 54 165 2.6 7.0 0.00 0.00 0.00 81 1019.9
20260507054524 54 183 1.7 7.0 0.00 0.00 0.00 82 1019.8
20260507053018 54 179 2.6 9.6 0.00 0.00 0.00 82 1019.8